Weather History for McCall, ID

Change the Weather History Date:

Friday, October 5, 2012

  Actual Average Record
Temperature  
Mean Temperature 37 °F 43 °F  
Max Temperature 54 °F 60 °F 80 °F (1988)
Min Temperature 20 °F 27 °F 14 °F (1991)
Degree Days  
Heating Degree Days 28 22  
Month to date heating degree days 98 105  
Since 1 July heating degree days 422 870  
Cooling Degree Days 0 0  
Month to date cooling degree days 0 0  
Year to date cooling degree days 172 25  
Growing Degree Days 0 (Base 50)    
Moisture  
Dew Point 14 °F    
Average Humidity 51    
Maximum Humidity 91    
Minimum Humidity 10    
Precipitation  
Precipitation 0.00 in 0.04 in 1.20 in (1939)
Month to date precipitation 0.00 0.17  
Year to date precipitation 18.31 14.09  
Sea Level Pressure  
Sea Level Pressure 30.25 in    
Wind  
Wind Speed 5 mph (NW)    
Max Wind Speed 16 mph    
Max Gust Speed 23 mph    
Visibility 10 miles    
Events      
T = Trace of Precipitation, MM = Missing Value Source: NWS Daily Summary

Daily Weather History Graph

Daily Weather History Graph

Search for Another Location

Airport:

Trip Planner

Search our weather history database for the weather conditions in past years. The results will help you decide how hot, cold, wet, or windy it might be!

Date:

Astronomy

Oct. 05, 2012 Rise Set
Actual Time 7:48 AM MDT 7:16 PM MDT
Civil Twilight 7:18 AM MDT 7:45 PM MDT
Nautical Twilight 6:44 AM MDT 8:19 PM MDT
Astronomical Twilight 6:10 AM MDT 8:53 PM MDT
Moon 10:31 PM MDT (10/5) 1:11 PM MDT (10/5)
Length of Visible Light 12h 26m
Length of Day
11h 28m
Waning Gibbous, 73% of the Moon is Illuminated
Oct 5
Waning Gibbous
Oct 8
Last Quarter
Oct 15
New
Oct 21
First Quarter
Oct 29
Full

Hourly Weather History & Observations

Time (MDT) Temp. Windchill Dew Point Humidity Pressure Visibility Wind Dir Wind Speed Gust Speed Precip Events Conditions
12:51 AM 37.0 °F 30.4 °F 18.0 °F 46% 30.21 in 9.0 mi North 9.2 mph - N/A   Clear
1:51 AM 28.9 °F - 19.9 °F 69% 30.23 in 10.0 mi Calm Calm - N/A   Clear
2:51 AM 26.1 °F 21.9 °F 19.0 °F 75% 30.23 in 10.0 mi SSW 3.5 mph - N/A   Clear
3:51 AM 35.1 °F 27.4 °F 18.0 °F 50% 30.19 in 10.0 mi NNE 10.4 mph - N/A   Clear
4:51 AM 23.0 °F - 14.0 °F 68% 30.24 in 10.0 mi Calm Calm - N/A   Clear
5:51 AM 24.1 °F - 16.0 °F 71% 30.25 in 10.0 mi Calm Calm - N/A   Clear
6:51 AM 19.9 °F - 17.1 °F 89% 30.29 in 9.0 mi Calm Calm - N/A   Clear
7:51 AM 21.0 °F - 14.0 °F 74% 30.30 in 8.0 mi Calm Calm - N/A   Clear
8:51 AM 23.0 °F - 15.1 °F 72% 30.31 in 7.0 mi Calm Calm - N/A   Clear
9:51 AM 30.9 °F 27.5 °F 19.9 °F 64% 30.29 in 9.0 mi Variable 3.5 mph - N/A   Clear
10:51 AM 37.9 °F 35.5 °F 19.0 °F 47% 30.28 in 10.0 mi SSW 3.5 mph - N/A   Clear
11:51 AM 43.0 °F 41.3 °F 18.0 °F 37% 30.27 in 9.0 mi SSW 3.5 mph - N/A   Clear
12:51 PM 46.9 °F - 14.0 °F 27% 30.25 in 10.0 mi SSE 5.8 mph - N/A   Clear
1:51 PM 52.0 °F - 12.9 °F 21% 30.25 in 10.0 mi Variable 6.9 mph - N/A   Clear
2:51 PM 53.1 °F - -2.0 °F 10% 30.23 in 10.0 mi WNW 8.1 mph - N/A   Clear
3:51 PM 53.1 °F - 7.0 °F 16% 30.19 in 10.0 mi WNW 6.9 mph 17.3 mph N/A   Clear
4:51 PM 53.1 °F - 1.0 °F 12% 30.22 in 10.0 mi WNW 8.1 mph - N/A   Clear
5:51 PM 52.0 °F - 3.9 °F 14% 30.22 in 10.0 mi West 11.5 mph 19.6 mph N/A   Clear
6:51 PM 48.0 °F - 15.1 °F 27% 30.25 in 10.0 mi West 8.1 mph - N/A   Clear
7:51 PM 44.1 °F 42.5 °F 17.1 °F 34% 30.27 in 10.0 mi NNW 3.5 mph - N/A   Clear
8:51 PM 43.0 °F 38.2 °F 16.0 °F 34% 30.28 in 10.0 mi NNW 8.1 mph - N/A   Clear
9:51 PM 43.0 °F 38.2 °F 18.0 °F 37% 30.27 in 9.0 mi North 8.1 mph - N/A   Clear
10:51 PM 35.1 °F - 17.1 °F 48% 30.27 in 10.0 mi Calm Calm - N/A   Clear
11:51 PM 39.0 °F 34.8 °F 19.0 °F 45% 30.25 in 9.0 mi NNE 5.8 mph - N/A   Clear